View from above orbital plane
|
View from above satellite
|
Ground track
|
The orbit data is extracted from the following two-line orbital elements,
1 43737U 18096U 21019.86007512 .00002429 00000-0 83986-4 0 9995
2 43737 97.4013 100.3177 0022459 82.6234 277.7558 15.30662573119578
Epoch (UTC): | 19 January 2021 20:38:30 |
Eccentricity: | 0.0022459 |
inclination: | 97.4013° |
perigee height: | 458 km |
apogee height: | 489 km |
right ascension of ascending node: | 100.3177° |
argument of perigee: | 82.6234° |
revolutions per day: | 15.30662573 |
mean anomaly at epoch: | 277.7558° |
orbit number at epoch: | 11957 |
The dashed part of the orbit path shows where the satellite is in the earth's shadow,
|
|